Regional Weather Roundup
Issued by NWS Jackson, KY

Home | Current Version | Previous Version | Graphics & Text | Print | Product List | Glossary On
Versions: 1 2 3 4 5 6 7 8 9 10 11 12 13 14 15 16 17 18 19 20 21 22 23 24 25 26 27 28 29 30 31 32 33 34 35 36 37 38 39 40 41 42 43 44 45 46 47 48 49 50
000
ASUS43 KJKL 300219
RWRJKL

EAST KENTUCKY HOURLY WEATHER ROUNDUP
NATIONAL WEATHER SERVICE JACKSON KY
1000 PM EDT FRI AUG 29 2014

NOTE: "FAIR" INDICATES FEW OR NO CLOUDS BELOW 12,000 FEET WITH
NO SIGNIFICANT WEATHER AND/OR OBSTRUCTIONS TO VISIBILITY.

* THESE REPORTS ARE NOT UNDER NWS QUALITY CONTROL AND MAY NOT
  REPORT WEATHER SUCH AS PRECIPITATION AND FOG.

KYZ079-080-083-085-087-088-110-112-115-119-120-300300
...EASTERN KENTUCKY...

CITY           SKY/WX    TMP DP  RH WIND       PRES   REMARKS
JACKSON        CLEAR     76  69  79 CALM      30.09S
LONDON         CLEAR     78  72  81 CALM      30.08R
SOMERSET*      PTCLDY    73  72  94 CALM      30.07S
MONTICELLO*    PTCLDY    71  69  93 CALM      30.08R
WILLIAMSBURG*  CLEAR     73  72  94 CALM      30.08R
MIDDLESBORO*   CLEAR     74  68  80 CALM      30.10R
HARLAN APT*    MOCLDY    73  70  88 MISG      30.12R
BLACK MTN*       N/A     70  66  88 SE1         N/A
PIKEVILLE APT* MOCLDY    75  70  83 SE5       30.11R
BIG SANDY*     PTCLDY    72  71  98 CALM      30.10R
MOREHEAD APT*  MOCLDY    75  70  83 SE3       30.09R
ASHLAND*       MOCLDY    73  66  78 CALM      30.04
$$

KYZ035-036-041-042-044-050-067-078-099-300300
...CENTRAL KENTUCKY...

CITY           SKY/WX    TMP DP  RH WIND       PRES   REMARKS
MT STERLING*   CLEAR     77  72  83 S3        30.08R
FLEMING/MASON* CLEAR     75  70  83 SE3       30.06F
DANVILLE*      PTCLDY    73  68  83 CALM      30.07R
RICHMOND*      PTCLDY    75  68  78 SE3       30.06R
LEXINGTON      PTCLDY    78  71  79 S3        30.05R
FRANKFORT      PTCLDY    74  67  78 CALM      30.03R
$$

KYZ091>093-OHZ055-061-077-WVZ005-015-034-035-042-300300
...SOUTHERN OHIO/WEST VIRGINIA...

CITY           SKY/WX    TMP DP  RH WIND       PRES   REMARKS
COVINGTON      PTCLDY    78  67  68 SE8       30.03S
COLUMBUS       MOCLDY    78  61  55 E8        30.06R
DAYTON         TSTM      74  69  85 S8        30.06R
WILMINGTON     MOCLDY    75  64  68 SE7       30.05S
HUNTINGTON     PTCLDY    76  71  85 CALM      30.06R
CHARLESTON     PTCLDY    74  72  93 E5        30.08R
PINEVILLE*     CLOUDY    74  73  99 MISG      30.21R
BECKLEY        CLEAR     72  64  76 S10       30.20R
BLUEFIELD      CLEAR     73  65  75 S10       30.24R
$$

VAZ002-007-008-TNZ017-027-036-066-071-300300
...SOUTHWEST VIRGINIA/EAST TENNESSEE...

CITY           SKY/WX    TMP DP  RH WIND       PRES   REMARKS
WISE*          LGT RAIN  70  70 100 SW5       30.23R
JONESVILLE*      N/A     75  72  88 NE3       30.14R
ABINGDON*      PTCLDY    73  70  91 E3        30.19R
BRISTOL        PTCLDY    73  69  87 CALM      30.14R
KNOXVILLE      PTCLDY    77  68  73 E5        30.06R
OAK RIDGE      PTCLDY    76  69  79 CALM      30.08R
CROSSVILLE     PTCLDY    72  64  76 CALM      30.12R
NASHVILLE      PTCLDY    79  62  56 S5        30.01R
$$

...KEY TO REMARKS...
VSB - VISIBILITY IN MILES
WCI - WIND CHILL INDEX
HX  - HEAT INDEX

$$


USA.gov is the U.S. government's official web portal to all federal, state and local government web resources and services.